Year,Month,Day,Hour,Minute,Value (Times are PST for temperature in C)
2014,07,11,00,00,16.50
2014,07,11,00,01,16.40
2014,07,11,00,02,16.40
2014,07,11,00,03,16.40
2014,07,11,00,04,16.40
2014,07,11,00,05,16.30
2014,07,11,00,06,16.30
2014,07,11,00,07,16.30
2014,07,11,00,08,16.30
2014,07,11,00,09,16.30
2014,07,11,00,10,16.20
2014,07,11,00,11,16.20
2014,07,11,00,12,16.20
2014,07,11,00,13,16.20
2014,07,11,00,14,16.20
2014,07,11,00,15,16.10
2014,07,11,00,16,16.10
2014,07,11,00,17,16.10
2014,07,11,00,18,16.10
2014,07,11,00,19,16.10
2014,07,11,00,20,16.10
2014,07,11,00,21,16.00
2014,07,11,00,22,16.00
2014,07,11,00,23,16.00
2014,07,11,00,24,16.00
2014,07,11,00,25,15.90
2014,07,11,00,26,15.90
2014,07,11,00,27,15.90
2014,07,11,00,28,15.80
2014,07,11,00,29,15.80
2014,07,11,00,30,15.80
2014,07,11,00,31,15.80
2014,07,11,00,32,15.80
2014,07,11,00,33,15.70
2014,07,11,00,34,15.70
2014,07,11,00,35,15.70
2014,07,11,00,36,15.60
2014,07,11,00,37,15.60
2014,07,11,00,38,15.60
2014,07,11,00,39,15.60
2014,07,11,00,40,15.50
2014,07,11,00,41,15.50
2014,07,11,00,42,15.50
2014,07,11,00,43,15.50
2014,07,11,00,44,15.40
2014,07,11,00,45,15.40
2014,07,11,00,46,15.40
2014,07,11,00,47,15.40
2014,07,11,00,48,15.40
2014,07,11,00,49,15.30
2014,07,11,00,50,15.30
2014,07,11,00,51,15.30
2014,07,11,00,52,15.30
2014,07,11,00,53,15.30
2014,07,11,00,54,15.30
2014,07,11,00,55,15.20
2014,07,11,00,56,15.20
2014,07,11,00,57,15.20
2014,07,11,00,58,15.20
2014,07,11,00,59,15.20
2014,07,11,01,00,15.10
2014,07,11,01,01,15.10
2014,07,11,01,02,15.10
2014,07,11,01,03,15.10
2014,07,11,01,04,15.10
2014,07,11,01,05,15.00
2014,07,11,01,06,15.00
2014,07,11,01,07,15.00
2014,07,11,01,08,14.90
2014,07,11,01,09,14.90
2014,07,11,01,10,14.90
2014,07,11,01,11,14.90
2014,07,11,01,12,14.90
2014,07,11,01,13,14.90
2014,07,11,01,14,14.90
2014,07,11,01,15,14.80
2014,07,11,01,16,14.80
2014,07,11,01,17,14.80
2014,07,11,01,18,14.80
2014,07,11,01,19,14.80
2014,07,11,01,20,14.90
2014,07,11,01,21,14.90
2014,07,11,01,22,14.80
2014,07,11,01,23,14.80
2014,07,11,01,24,14.90
2014,07,11,01,25,14.80
2014,07,11,01,26,14.80
2014,07,11,01,27,14.80
2014,07,11,01,28,14.80
2014,07,11,01,29,14.80
2014,07,11,01,30,14.80
2014,07,11,01,31,14.80
2014,07,11,01,32,14.80
2014,07,11,01,33,14.80
2014,07,11,01,34,14.80
2014,07,11,01,35,14.80
2014,07,11,01,36,14.80
2014,07,11,01,37,14.80
2014,07,11,01,38,14.70
2014,07,11,01,39,14.70
2014,07,11,01,40,14.70
2014,07,11,01,41,14.70
2014,07,11,01,42,14.70
2014,07,11,01,43,14.70
2014,07,11,01,44,14.70
2014,07,11,01,45,14.70
2014,07,11,01,46,14.70
2014,07,11,01,47,14.70
2014,07,11,01,48,14.70
2014,07,11,01,49,14.70
2014,07,11,01,50,14.70
2014,07,11,01,51,14.70
2014,07,11,01,52,14.70
2014,07,11,01,53,14.70
2014,07,11,01,54,14.70
2014,07,11,01,55,14.70
2014,07,11,01,56,14.60
2014,07,11,01,57,14.60
2014,07,11,01,58,14.60
2014,07,11,01,59,14.60
2014,07,11,02,00,14.60
2014,07,11,02,01,14.60
2014,07,11,02,02,14.60
2014,07,11,02,03,14.50
2014,07,11,02,04,14.50
2014,07,11,02,05,14.50
2014,07,11,02,06,14.50
2014,07,11,02,07,14.50
2014,07,11,02,08,14.40
2014,07,11,02,09,14.40
2014,07,11,02,10,14.40
2014,07,11,02,11,14.40
2014,07,11,02,12,14.40
2014,07,11,02,13,14.30
2014,07,11,02,14,14.30
2014,07,11,02,15,14.30
2014,07,11,02,16,14.30
2014,07,11,02,17,14.30
2014,07,11,02,18,14.20
2014,07,11,02,19,14.20
2014,07,11,02,20,14.20
2014,07,11,02,21,14.20
2014,07,11,02,22,14.20
2014,07,11,02,23,14.10
2014,07,11,02,24,14.10
2014,07,11,02,25,14.10
2014,07,11,02,26,14.00
2014,07,11,02,27,14.00
2014,07,11,02,28,14.00
2014,07,11,02,29,14.00
2014,07,11,02,30,13.90
2014,07,11,02,31,13.90
2014,07,11,02,32,13.90
2014,07,11,02,33,13.90
2014,07,11,02,34,13.90
2014,07,11,02,35,13.90
2014,07,11,02,36,13.90
2014,07,11,02,37,13.90
2014,07,11,02,38,13.90
2014,07,11,02,39,13.90
2014,07,11,02,40,13.90
2014,07,11,02,41,13.90
2014,07,11,02,42,13.90
2014,07,11,02,43,13.80
2014,07,11,02,44,13.80
2014,07,11,02,45,13.80
2014,07,11,02,46,13.80
2014,07,11,02,47,13.80
2014,07,11,02,48,13.80
2014,07,11,02,49,13.70
2014,07,11,02,50,13.70
2014,07,11,02,51,13.70
2014,07,11,02,52,13.70
2014,07,11,02,53,13.70
2014,07,11,02,54,13.70
2014,07,11,02,55,13.70
2014,07,11,02,56,13.70
2014,07,11,02,57,13.70
2014,07,11,02,58,13.60
2014,07,11,02,59,13.60
2014,07,11,03,00,13.60
2014,07,11,03,01,13.60
2014,07,11,03,02,13.50
2014,07,11,03,03,13.50
2014,07,11,03,04,13.50
2014,07,11,03,05,13.40
2014,07,11,03,06,13.40
2014,07,11,03,07,13.40
2014,07,11,03,08,13.40
2014,07,11,03,09,13.40
2014,07,11,03,10,13.30
2014,07,11,03,11,13.30
2014,07,11,03,12,13.30
2014,07,11,03,13,13.30
2014,07,11,03,14,13.30
2014,07,11,03,15,13.20
2014,07,11,03,16,13.20
2014,07,11,03,17,13.20
2014,07,11,03,18,13.20
2014,07,11,03,19,13.20
2014,07,11,03,20,13.20
2014,07,11,03,21,13.20
2014,07,11,03,22,13.10
2014,07,11,03,23,13.10
2014,07,11,03,24,13.10
2014,07,11,03,25,13.10
2014,07,11,03,26,13.10
2014,07,11,03,27,13.10
2014,07,11,03,28,13.10
2014,07,11,03,29,13.10
2014,07,11,03,30,13.00
2014,07,11,03,31,13.00
2014,07,11,03,32,13.00
2014,07,11,03,33,13.00
2014,07,11,03,34,13.00
2014,07,11,03,35,13.10
2014,07,11,03,36,13.10
2014,07,11,03,37,13.10
2014,07,11,03,38,13.10
2014,07,11,03,39,13.10
2014,07,11,03,40,13.10
2014,07,11,03,41,13.10
2014,07,11,03,42,13.10
2014,07,11,03,43,13.10
2014,07,11,03,44,13.10
2014,07,11,03,45,13.10
2014,07,11,03,46,13.10
2014,07,11,03,47,13.10
2014,07,11,03,48,13.10
2014,07,11,03,49,13.10
2014,07,11,03,50,13.10
2014,07,11,03,51,13.10
2014,07,11,03,52,13.10
2014,07,11,03,53,13.10
2014,07,11,03,54,13.10
2014,07,11,03,55,13.10
2014,07,11,03,56,13.10
2014,07,11,03,57,13.10
2014,07,11,03,58,13.10
2014,07,11,03,59,13.10
2014,07,11,04,00,13.10
2014,07,11,04,01,13.10
2014,07,11,04,02,13.10
2014,07,11,04,03,13.10
2014,07,11,04,04,13.10
2014,07,11,04,05,13.10
2014,07,11,04,06,13.10
2014,07,11,04,07,13.10
2014,07,11,04,08,13.10
2014,07,11,04,09,13.00
2014,07,11,04,10,13.00
2014,07,11,04,11,13.00
2014,07,11,04,12,13.00
2014,07,11,04,13,13.00
2014,07,11,04,14,12.90
2014,07,11,04,15,12.90
2014,07,11,04,16,12.90
2014,07,11,04,17,12.90
2014,07,11,04,18,12.90
2014,07,11,04,19,12.80
2014,07,11,04,20,12.80
2014,07,11,04,21,12.80
2014,07,11,04,22,12.80
2014,07,11,04,23,12.70
2014,07,11,04,24,12.70
2014,07,11,04,25,12.70
2014,07,11,04,26,12.70
2014,07,11,04,27,12.60
2014,07,11,04,28,12.60
2014,07,11,04,29,12.60
2014,07,11,04,30,12.60
2014,07,11,04,31,12.50
2014,07,11,04,32,12.50
2014,07,11,04,33,12.50
2014,07,11,04,34,12.40
2014,07,11,04,35,12.40
2014,07,11,04,36,12.40
2014,07,11,04,37,12.40
2014,07,11,04,38,12.40
2014,07,11,04,39,12.40
2014,07,11,04,40,12.40
2014,07,11,04,41,12.40
2014,07,11,04,42,12.40
2014,07,11,04,43,12.30
2014,07,11,04,44,12.30
2014,07,11,04,45,12.30
2014,07,11,04,46,12.30
2014,07,11,04,47,12.30
2014,07,11,04,48,12.20
2014,07,11,04,49,12.20
2014,07,11,04,50,12.20
2014,07,11,04,51,12.20
2014,07,11,04,52,12.20
2014,07,11,04,53,12.20
2014,07,11,04,54,12.20
2014,07,11,04,55,12.20
2014,07,11,04,56,12.20
2014,07,11,04,57,12.20
2014,07,11,04,58,12.20
2014,07,11,04,59,12.20
2014,07,11,05,00,12.20
2014,07,11,05,01,12.20
2014,07,11,05,02,12.20
2014,07,11,05,03,12.20
2014,07,11,05,04,12.20
2014,07,11,05,05,12.20
2014,07,11,05,06,12.20
2014,07,11,05,07,12.20
2014,07,11,05,08,12.20
2014,07,11,05,09,12.20
2014,07,11,05,10,12.20
2014,07,11,05,11,12.20
2014,07,11,05,12,12.20
2014,07,11,05,13,12.10
2014,07,11,05,14,12.10
2014,07,11,05,15,12.10
2014,07,11,05,16,12.10
2014,07,11,05,17,12.10
2014,07,11,05,18,12.10
2014,07,11,05,19,12.10
2014,07,11,05,20,12.00
2014,07,11,05,21,12.00
2014,07,11,05,22,12.00
2014,07,11,05,23,12.00
2014,07,11,05,24,12.00
2014,07,11,05,25,12.00
2014,07,11,05,26,11.90
2014,07,11,05,27,11.90
2014,07,11,05,28,11.90
2014,07,11,05,29,11.90
2014,07,11,05,30,11.90
2014,07,11,05,31,11.90
2014,07,11,05,32,11.90
2014,07,11,05,33,11.80
2014,07,11,05,34,11.80
2014,07,11,05,35,11.80
2014,07,11,05,36,11.80
2014,07,11,05,37,11.80
2014,07,11,05,38,11.80
2014,07,11,05,39,11.80
2014,07,11,05,40,11.80
2014,07,11,05,41,11.90
2014,07,11,05,42,11.90
2014,07,11,05,43,11.90
2014,07,11,05,44,11.90
2014,07,11,05,45,11.90
2014,07,11,05,46,11.90
2014,07,11,05,47,11.90
2014,07,11,05,48,11.90
2014,07,11,05,49,11.90
2014,07,11,05,50,11.90
2014,07,11,05,51,11.90
2014,07,11,05,52,11.90
2014,07,11,05,53,11.90
2014,07,11,05,54,11.90
2014,07,11,05,55,11.90
2014,07,11,05,56,11.90
2014,07,11,05,57,11.90
2014,07,11,05,58,11.90
2014,07,11,05,59,11.90
2014,07,11,06,00,11.90
2014,07,11,06,01,11.90
2014,07,11,06,02,11.90
2014,07,11,06,03,11.90
2014,07,11,06,04,11.90
2014,07,11,06,05,11.90
2014,07,11,06,06,11.90
2014,07,11,06,07,11.90
2014,07,11,06,08,11.90
2014,07,11,06,09,11.90
2014,07,11,06,10,11.90
2014,07,11,06,11,11.90
2014,07,11,06,12,11.90
2014,07,11,06,13,11.90
2014,07,11,06,14,11.90
2014,07,11,06,15,12.00
2014,07,11,06,16,12.00
2014,07,11,06,17,12.00
2014,07,11,06,18,12.00
2014,07,11,06,19,12.00
2014,07,11,06,20,12.00
2014,07,11,06,21,12.00
2014,07,11,06,22,12.10
2014,07,11,06,23,12.10
2014,07,11,06,24,12.10
2014,07,11,06,25,12.20
2014,07,11,06,26,12.20
2014,07,11,06,27,12.30
2014,07,11,06,28,12.30
2014,07,11,06,29,12.30
2014,07,11,06,30,12.40
2014,07,11,06,31,12.40
2014,07,11,06,32,12.50
2014,07,11,06,33,12.50
2014,07,11,06,34,12.60
2014,07,11,06,35,12.60
2014,07,11,06,36,12.60
2014,07,11,06,37,12.70
2014,07,11,06,38,12.70
2014,07,11,06,39,12.80
2014,07,11,06,40,12.80
2014,07,11,06,41,12.80
2014,07,11,06,42,12.90
2014,07,11,06,43,13.00
2014,07,11,06,44,13.00
2014,07,11,06,45,13.10
2014,07,11,06,46,13.20
2014,07,11,06,47,13.20
2014,07,11,06,48,13.30
2014,07,11,06,49,13.30
2014,07,11,06,50,13.40
2014,07,11,06,51,13.50
2014,07,11,06,52,13.50
2014,07,11,06,53,13.60
2014,07,11,06,54,13.60
2014,07,11,06,55,13.70
2014,07,11,06,56,13.70
2014,07,11,06,57,13.80
2014,07,11,06,58,13.80
2014,07,11,06,59,13.80
2014,07,11,07,00,13.90
2014,07,11,07,01,13.90
2014,07,11,07,02,14.00
2014,07,11,07,03,14.00
2014,07,11,07,04,14.10
2014,07,11,07,05,14.10
2014,07,11,07,06,14.20
2014,07,11,07,07,14.20
2014,07,11,07,08,14.30
2014,07,11,07,09,14.30
2014,07,11,07,10,14.40
2014,07,11,07,11,14.40
2014,07,11,07,12,14.50
2014,07,11,07,13,14.50
2014,07,11,07,14,14.60
2014,07,11,07,15,14.60
2014,07,11,07,16,14.70
2014,07,11,07,17,14.70
2014,07,11,07,18,14.80
2014,07,11,07,19,14.80
2014,07,11,07,20,14.90
2014,07,11,07,21,14.90
2014,07,11,07,22,14.90
2014,07,11,07,23,15.00
2014,07,11,07,24,15.00
2014,07,11,07,25,15.10
2014,07,11,07,26,15.10
2014,07,11,07,27,15.20
2014,07,11,07,28,15.20
2014,07,11,07,29,15.30
2014,07,11,07,30,15.30
2014,07,11,07,31,15.30
2014,07,11,07,32,15.40
2014,07,11,07,33,15.40
2014,07,11,07,34,15.50
2014,07,11,07,35,15.60
2014,07,11,07,36,15.60
2014,07,11,07,37,15.70
2014,07,11,07,38,15.70
2014,07,11,07,39,15.80
2014,07,11,07,40,15.80
2014,07,11,07,41,15.90
2014,07,11,07,42,16.00
2014,07,11,07,43,16.10
2014,07,11,07,44,16.10
2014,07,11,07,45,16.20
2014,07,11,07,46,16.30
2014,07,11,07,47,16.40
2014,07,11,07,48,16.50
2014,07,11,07,49,16.60
2014,07,11,07,50,16.70
2014,07,11,07,51,16.80
2014,07,11,07,52,16.90
2014,07,11,07,53,17.00
2014,07,11,07,54,17.10
2014,07,11,07,55,17.20
2014,07,11,07,56,17.30
2014,07,11,07,57,17.40
2014,07,11,07,58,17.50
2014,07,11,07,59,17.50
2014,07,11,08,00,17.60
2014,07,11,08,01,17.60
2014,07,11,08,02,17.70
2014,07,11,08,03,17.70
2014,07,11,08,04,17.80
2014,07,11,08,05,17.80
2014,07,11,08,06,17.90
2014,07,11,08,07,17.90
2014,07,11,08,08,17.90
2014,07,11,08,09,18.00
2014,07,11,08,10,18.00
2014,07,11,08,11,18.10
2014,07,11,08,12,18.10
2014,07,11,08,13,18.10
2014,07,11,08,14,18.20
2014,07,11,08,15,18.20
2014,07,11,08,16,18.20
2014,07,11,08,17,18.30
2014,07,11,08,18,18.30
2014,07,11,08,19,18.40
2014,07,11,08,20,18.40
2014,07,11,08,21,18.50
2014,07,11,08,22,18.60
2014,07,11,08,23,18.60
2014,07,11,08,24,18.70
2014,07,11,08,25,18.70
2014,07,11,08,26,18.80
2014,07,11,08,27,18.90
2014,07,11,08,28,19.00
2014,07,11,08,29,19.10
2014,07,11,08,30,19.20
2014,07,11,08,31,19.30
2014,07,11,08,32,19.40
2014,07,11,08,33,19.50
2014,07,11,08,34,19.60
2014,07,11,08,35,19.70
2014,07,11,08,36,19.90
2014,07,11,08,37,20.00
2014,07,11,08,38,20.10
2014,07,11,08,39,20.20
2014,07,11,08,40,20.30
2014,07,11,08,41,20.40
2014,07,11,08,42,20.50
2014,07,11,08,43,20.60
2014,07,11,08,44,20.70
2014,07,11,08,45,20.80
2014,07,11,08,46,20.80
2014,07,11,08,47,20.90
2014,07,11,08,48,21.00
2014,07,11,08,49,21.10
2014,07,11,08,50,21.10
2014,07,11,08,51,21.20
2014,07,11,08,52,21.20
2014,07,11,08,53,21.30
2014,07,11,08,54,21.40
2014,07,11,08,55,21.50
2014,07,11,08,56,21.70
2014,07,11,08,57,21.80
2014,07,11,08,58,21.90
2014,07,11,08,59,22.00
2014,07,11,09,00,22.10
2014,07,11,09,01,22.10
2014,07,11,09,02,22.10
2014,07,11,09,03,22.10
2014,07,11,09,04,22.10
2014,07,11,09,05,22.20
2014,07,11,09,06,22.20
2014,07,11,09,07,22.20
2014,07,11,09,08,22.30
2014,07,11,09,09,22.30
2014,07,11,09,10,22.30
2014,07,11,09,11,22.30
2014,07,11,09,12,22.30
2014,07,11,09,13,22.40
2014,07,11,09,14,22.40
2014,07,11,09,15,22.40
2014,07,11,09,16,22.30
2014,07,11,09,17,22.30
2014,07,11,09,18,22.30
2014,07,11,09,19,22.30
2014,07,11,09,20,22.30
2014,07,11,09,21,22.10
2014,07,11,09,22,22.00
2014,07,11,09,23,22.00
2014,07,11,09,24,22.00
2014,07,11,09,25,22.00
2014,07,11,09,26,22.10
2014,07,11,09,27,22.20
2014,07,11,09,28,22.30
2014,07,11,09,29,22.30
2014,07,11,09,30,22.30
2014,07,11,09,31,22.20
2014,07,11,09,32,22.20
2014,07,11,09,33,22.20
2014,07,11,09,34,22.20
2014,07,11,09,35,22.20
2014,07,11,09,36,22.30
2014,07,11,09,37,22.30
2014,07,11,09,38,22.30
2014,07,11,09,39,22.30
2014,07,11,09,40,22.40
2014,07,11,09,41,22.40
2014,07,11,09,42,22.50
2014,07,11,09,43,22.50
2014,07,11,09,44,22.60
2014,07,11,09,45,22.60
2014,07,11,09,46,22.60
2014,07,11,09,47,22.60
2014,07,11,09,48,22.60
2014,07,11,09,49,22.60
2014,07,11,09,50,22.60
2014,07,11,09,51,22.60
2014,07,11,09,52,22.60
2014,07,11,09,53,22.60
2014,07,11,09,54,22.70
2014,07,11,09,55,22.70
2014,07,11,09,56,22.70
2014,07,11,09,57,22.80
2014,07,11,09,58,22.80
2014,07,11,09,59,22.80
2014,07,11,10,00,22.80
2014,07,11,10,01,22.80
2014,07,11,10,02,22.80
2014,07,11,10,03,22.90
2014,07,11,10,04,22.90
2014,07,11,10,05,23.00
2014,07,11,10,06,23.10
2014,07,11,10,07,23.10
2014,07,11,10,08,23.20
2014,07,11,10,09,23.30
2014,07,11,10,10,23.30
2014,07,11,10,11,23.30
2014,07,11,10,12,23.30
2014,07,11,10,13,23.30
2014,07,11,10,14,23.30
2014,07,11,10,15,23.30
2014,07,11,10,16,23.30
2014,07,11,10,17,23.30
2014,07,11,10,18,23.30
2014,07,11,10,19,23.40
2014,07,11,10,20,23.40
2014,07,11,10,21,23.50
2014,07,11,10,22,23.60
2014,07,11,10,23,23.70
2014,07,11,10,24,23.70
2014,07,11,10,25,23.80
2014,07,11,10,26,23.80
2014,07,11,10,27,23.80
2014,07,11,10,28,23.80
2014,07,11,10,29,23.70
2014,07,11,10,30,23.70
2014,07,11,10,31,23.80
2014,07,11,10,32,23.80
2014,07,11,10,33,23.80
2014,07,11,10,34,23.70
2014,07,11,10,35,23.70
2014,07,11,10,36,23.60
2014,07,11,10,37,23.60
2014,07,11,10,38,23.60
2014,07,11,10,39,23.60
2014,07,11,10,40,23.60
2014,07,11,10,41,23.50
2014,07,11,10,42,23.40
2014,07,11,10,43,23.40
2014,07,11,10,44,23.40
2014,07,11,10,45,23.40
2014,07,11,10,46,23.40
2014,07,11,10,47,23.40
2014,07,11,10,48,23.40
2014,07,11,10,49,23.40
2014,07,11,10,50,23.40
2014,07,11,10,51,23.40
2014,07,11,10,52,23.50
2014,07,11,10,53,23.60
2014,07,11,10,54,23.60
2014,07,11,10,55,23.70
2014,07,11,10,56,23.80
2014,07,11,10,57,23.90
2014,07,11,10,58,23.90
2014,07,11,10,59,23.90
2014,07,11,11,00,23.90
2014,07,11,11,01,23.80
2014,07,11,11,02,23.80
2014,07,11,11,03,23.70
2014,07,11,11,04,23.70
2014,07,11,11,05,23.70
2014,07,11,11,06,23.70
2014,07,11,11,07,23.60
2014,07,11,11,08,23.70
2014,07,11,11,09,23.70
2014,07,11,11,10,23.70
2014,07,11,11,11,23.70
2014,07,11,11,12,23.70
2014,07,11,11,13,23.70
2014,07,11,11,14,23.50
2014,07,11,11,15,23.40
2014,07,11,11,16,23.40
2014,07,11,11,17,23.30
2014,07,11,11,18,23.30
2014,07,11,11,19,23.40
2014,07,11,11,20,23.50
2014,07,11,11,21,23.50
2014,07,11,11,22,23.50
2014,07,11,11,23,23.20
2014,07,11,11,24,23.00
2014,07,11,11,25,22.80
2014,07,11,11,26,22.80
2014,07,11,11,27,22.70
2014,07,11,11,28,22.50
2014,07,11,11,29,22.40
2014,07,11,11,30,22.40
2014,07,11,11,31,22.40
2014,07,11,11,32,22.50
2014,07,11,11,33,22.50
2014,07,11,11,34,22.60
2014,07,11,11,35,22.70
2014,07,11,11,36,22.60
2014,07,11,11,37,22.50
2014,07,11,11,38,22.40
2014,07,11,11,39,22.30
2014,07,11,11,40,22.30
2014,07,11,11,41,22.40
2014,07,11,11,42,22.50
2014,07,11,11,43,22.70
2014,07,11,11,44,22.70
2014,07,11,11,45,22.70
2014,07,11,11,46,22.60
2014,07,11,11,47,22.70
2014,07,11,11,48,22.80
2014,07,11,11,49,22.70
2014,07,11,11,50,22.70
2014,07,11,11,51,22.80
2014,07,11,11,52,22.80
2014,07,11,11,53,22.90
2014,07,11,11,54,23.00
2014,07,11,11,55,23.00
2014,07,11,11,56,23.10
2014,07,11,11,57,23.10
2014,07,11,11,58,23.20
2014,07,11,11,59,23.30
2014,07,11,12,00,23.30
2014,07,11,12,01,23.40
2014,07,11,12,02,23.50
2014,07,11,12,03,23.50
2014,07,11,12,04,23.50
2014,07,11,12,05,23.60
2014,07,11,12,06,23.70
2014,07,11,12,07,23.80
2014,07,11,12,08,23.90
2014,07,11,12,09,23.90
2014,07,11,12,10,24.00
2014,07,11,12,11,24.10
2014,07,11,12,12,24.20
2014,07,11,12,13,24.30
2014,07,11,12,14,24.40
2014,07,11,12,15,24.40
2014,07,11,12,16,24.50
2014,07,11,12,17,24.60
2014,07,11,12,18,24.50
2014,07,11,12,19,24.50
2014,07,11,12,20,24.40
2014,07,11,12,21,24.50
2014,07,11,12,22,24.50
2014,07,11,12,23,24.50
2014,07,11,12,24,24.60
2014,07,11,12,25,24.60
2014,07,11,12,26,24.70
2014,07,11,12,27,24.80
2014,07,11,12,28,24.90
2014,07,11,12,29,24.90
2014,07,11,12,30,25.00
2014,07,11,12,31,24.90
2014,07,11,12,32,24.90
2014,07,11,12,33,24.90
2014,07,11,12,34,24.80
2014,07,11,12,35,24.70
2014,07,11,12,36,24.70
2014,07,11,12,37,24.60
2014,07,11,12,38,24.60
2014,07,11,12,39,24.50
2014,07,11,12,40,24.60
2014,07,11,12,41,24.70
2014,07,11,12,42,24.70
2014,07,11,12,43,24.70
2014,07,11,12,44,24.70
2014,07,11,12,45,24.80
2014,07,11,12,46,24.70
2014,07,11,12,47,24.70
2014,07,11,12,48,24.70
2014,07,11,12,49,24.80
2014,07,11,12,50,24.70
2014,07,11,12,51,24.60
2014,07,11,12,52,24.40
2014,07,11,12,53,24.30
2014,07,11,12,54,24.30
2014,07,11,12,55,24.20
2014,07,11,12,56,24.20
2014,07,11,12,57,24.20
2014,07,11,12,58,24.10
2014,07,11,12,59,24.10
2014,07,11,13,00,24.10
2014,07,11,13,01,24.10
2014,07,11,13,02,24.10
2014,07,11,13,03,24.10
2014,07,11,13,04,24.10
2014,07,11,13,05,24.10
2014,07,11,13,06,24.10
2014,07,11,13,07,24.30
2014,07,11,13,08,24.40
2014,07,11,13,09,24.50
2014,07,11,13,10,24.60
2014,07,11,13,11,24.70
2014,07,11,13,12,24.70
2014,07,11,13,13,24.70
2014,07,11,13,14,24.70
2014,07,11,13,15,24.60
2014,07,11,13,16,24.60
2014,07,11,13,17,24.60
2014,07,11,13,18,24.70
2014,07,11,13,19,24.80
2014,07,11,13,20,25.00
2014,07,11,13,21,25.10
2014,07,11,13,22,25.10
2014,07,11,13,23,25.10
2014,07,11,13,24,25.20
2014,07,11,13,25,25.20
2014,07,11,13,26,25.10
2014,07,11,13,27,25.00
2014,07,11,13,28,24.90
2014,07,11,13,29,24.90
2014,07,11,13,30,24.90
2014,07,11,13,31,24.80
2014,07,11,13,32,24.80
2014,07,11,13,33,24.80
2014,07,11,13,34,24.80
2014,07,11,13,35,24.80
2014,07,11,13,36,24.90
2014,07,11,13,37,25.00
2014,07,11,13,38,25.10
2014,07,11,13,39,25.10
2014,07,11,13,40,25.10
2014,07,11,13,41,25.00
2014,07,11,13,42,24.90
2014,07,11,13,43,24.80
2014,07,11,13,44,24.90
2014,07,11,13,45,24.90
2014,07,11,13,46,24.90
2014,07,11,13,47,24.90
2014,07,11,13,48,24.90
2014,07,11,13,49,24.90
2014,07,11,13,50,25.00
2014,07,11,13,51,25.10
2014,07,11,13,52,25.20
2014,07,11,13,53,25.30
2014,07,11,13,54,25.30
2014,07,11,13,55,25.30
2014,07,11,13,56,25.40
2014,07,11,13,57,25.50
2014,07,11,13,58,25.50
2014,07,11,13,59,25.50
2014,07,11,14,00,25.60
2014,07,11,14,01,25.70
2014,07,11,14,02,25.80
2014,07,11,14,03,25.90
2014,07,11,14,04,25.90
2014,07,11,14,05,25.90
2014,07,11,14,06,26.00
2014,07,11,14,07,26.10
2014,07,11,14,08,26.20
2014,07,11,14,09,26.10
2014,07,11,14,10,26.10
2014,07,11,14,11,26.10
2014,07,11,14,12,26.10
2014,07,11,14,13,26.10
2014,07,11,14,14,26.10
2014,07,11,14,15,26.20
2014,07,11,14,16,26.30
2014,07,11,14,17,26.30
2014,07,11,14,18,26.30
2014,07,11,14,19,26.30
2014,07,11,14,20,26.20
2014,07,11,14,21,26.20
2014,07,11,14,22,26.30
2014,07,11,14,23,26.30
2014,07,11,14,24,26.30
2014,07,11,14,25,26.30
2014,07,11,14,26,26.30
2014,07,11,14,27,26.30
2014,07,11,14,28,26.30
2014,07,11,14,29,26.30
2014,07,11,14,30,26.30
2014,07,11,14,31,26.30
2014,07,11,14,32,26.30
2014,07,11,14,33,26.20
2014,07,11,14,34,26.20
2014,07,11,14,35,26.30
2014,07,11,14,36,26.40
2014,07,11,14,37,26.50
2014,07,11,14,38,26.50
2014,07,11,14,39,26.50
2014,07,11,14,40,26.60
2014,07,11,14,41,26.70
2014,07,11,14,42,26.70
2014,07,11,14,43,26.70
2014,07,11,14,44,26.70
2014,07,11,14,45,26.60
2014,07,11,14,46,26.60
2014,07,11,14,47,26.50
2014,07,11,14,48,26.50
2014,07,11,14,49,26.50
2014,07,11,14,50,26.60
2014,07,11,14,51,26.50
2014,07,11,14,52,26.50
2014,07,11,14,53,26.50
2014,07,11,14,54,26.40
2014,07,11,14,55,26.40
2014,07,11,14,56,26.30
2014,07,11,14,57,26.30
2014,07,11,14,58,26.30
2014,07,11,14,59,26.30
2014,07,11,15,00,26.30
2014,07,11,15,01,26.30
2014,07,11,15,02,26.30
2014,07,11,15,03,26.30
2014,07,11,15,04,26.20
2014,07,11,15,05,26.20
2014,07,11,15,06,26.10
2014,07,11,15,07,26.10
2014,07,11,15,08,26.00
2014,07,11,15,09,26.00
2014,07,11,15,10,26.00
2014,07,11,15,11,26.10
2014,07,11,15,12,26.10
2014,07,11,15,13,26.20
2014,07,11,15,14,26.20
2014,07,11,15,15,26.10
2014,07,11,15,16,26.10
2014,07,11,15,17,26.00
2014,07,11,15,18,26.00
2014,07,11,15,19,26.00
2014,07,11,15,20,25.90
2014,07,11,15,21,25.90
2014,07,11,15,22,26.00
2014,07,11,15,23,25.90
2014,07,11,15,24,25.90
2014,07,11,15,25,25.80
2014,07,11,15,26,25.70
2014,07,11,15,27,25.70
2014,07,11,15,28,25.70
2014,07,11,15,29,25.70
2014,07,11,15,30,25.80
2014,07,11,15,31,25.80
2014,07,11,15,32,25.80
2014,07,11,15,33,25.80
2014,07,11,15,34,25.70
2014,07,11,15,35,25.60
2014,07,11,15,36,25.60
2014,07,11,15,37,25.50
2014,07,11,15,38,25.40
2014,07,11,15,39,25.50
2014,07,11,15,40,25.50
2014,07,11,15,41,25.60
2014,07,11,15,42,25.70
2014,07,11,15,43,25.70
2014,07,11,15,44,25.70
2014,07,11,15,45,25.70
2014,07,11,15,46,25.70
2014,07,11,15,47,25.70
2014,07,11,15,48,25.70
2014,07,11,15,49,25.80
2014,07,11,15,50,25.90
2014,07,11,15,51,25.90
2014,07,11,15,52,26.00
2014,07,11,15,53,26.00
2014,07,11,15,54,25.90
2014,07,11,15,55,25.90
2014,07,11,15,56,25.90
2014,07,11,15,57,25.90
2014,07,11,15,58,25.90
2014,07,11,15,59,25.90
2014,07,11,16,00,26.00
2014,07,11,16,01,26.10
2014,07,11,16,02,26.30
2014,07,11,16,03,26.40
2014,07,11,16,04,26.50
2014,07,11,16,05,26.50
2014,07,11,16,06,26.50
2014,07,11,16,07,26.50
2014,07,11,16,08,26.50
2014,07,11,16,09,26.50
2014,07,11,16,10,26.60
2014,07,11,16,11,26.60
2014,07,11,16,12,26.60
2014,07,11,16,13,26.60
2014,07,11,16,14,26.70
2014,07,11,16,15,26.70
2014,07,11,16,16,26.80
2014,07,11,16,17,26.90
2014,07,11,16,18,26.90
2014,07,11,16,19,26.90
2014,07,11,16,20,26.90
2014,07,11,16,21,27.00
2014,07,11,16,22,27.00
2014,07,11,16,23,27.00
2014,07,11,16,24,27.00
2014,07,11,16,25,27.10
2014,07,11,16,26,27.20
2014,07,11,16,27,27.30
2014,07,11,16,28,27.30
2014,07,11,16,29,27.30
2014,07,11,16,30,27.30
2014,07,11,16,31,27.30
2014,07,11,16,32,27.20
2014,07,11,16,33,27.00
2014,07,11,16,34,26.80
2014,07,11,16,35,26.80
2014,07,11,16,36,26.70
2014,07,11,16,37,26.80
2014,07,11,16,38,26.80
2014,07,11,16,39,26.90
2014,07,11,16,40,26.80
2014,07,11,16,41,26.70
2014,07,11,16,42,26.70
2014,07,11,16,43,26.60
2014,07,11,16,44,26.60
2014,07,11,16,45,26.60
2014,07,11,16,46,26.70
2014,07,11,16,47,26.70
2014,07,11,16,48,26.70
2014,07,11,16,49,26.60
2014,07,11,16,50,26.60
2014,07,11,16,51,26.50
2014,07,11,16,52,26.40
2014,07,11,16,53,26.30
2014,07,11,16,54,26.30
2014,07,11,16,55,26.40
2014,07,11,16,56,26.40
2014,07,11,16,57,26.30
2014,07,11,16,58,26.30
2014,07,11,16,59,26.20
2014,07,11,17,00,26.20
2014,07,11,17,01,26.20
2014,07,11,17,02,26.30
2014,07,11,17,03,26.30
2014,07,11,17,04,26.40
2014,07,11,17,05,26.40
2014,07,11,17,06,26.30
2014,07,11,17,07,26.30
2014,07,11,17,08,26.20
2014,07,11,17,09,26.20
2014,07,11,17,10,26.10
2014,07,11,17,11,26.10
2014,07,11,17,12,26.10
2014,07,11,17,13,26.10
2014,07,11,17,14,26.20
2014,07,11,17,15,26.20
2014,07,11,17,16,26.20
2014,07,11,17,17,26.20
2014,07,11,17,18,26.10
2014,07,11,17,19,26.10